Location: Unspecified
(0.0000°N, 0.0000°E)
Time: 20:16:59
(UTC+00:00)

Vanguard 2 Rocket - Visible Passes

Search period start: 16 November 2018 00:00
Search period end: 26 November 2018 00:00
Orbit: 553 x 3328 km, 32.9° (Epoch: 15 November)

Date Brightness Start Highest point End Pass type
(mag) Time Alt. Az. Time Alt. Az. Time Alt. Az.
16 Nov 10.2 17:59:03 10° NNW 18:12:58 22° NNE 18:25:00 10° ENE visible
16 Nov 9.6 20:17:46 10° NW 20:31:20 38° N 20:31:20 38° N visible
16 Nov 10.7 22:36:39 10° WNW 22:37:11 11° WNW 22:37:11 11° WNW visible
17 Nov 9.6 19:15:31 10° NW 19:32:14 33° NNE 19:35:43 31° NE visible
17 Nov 10.0 21:33:56 10° NW 21:41:35 30° NW 21:41:35 30° NW visible
18 Nov 10.0 18:13:24 10° NNW 18:29:18 28° NNE 18:40:14 15° ENE visible
18 Nov 9.3 20:31:27 10° NW 20:46:07 50° N 20:46:07 50° N visible
18 Nov 10.7 22:51:31 10° WNW 22:52:00 11° WNW 22:52:00 11° WNW visible
19 Nov 9.2 19:29:12 10° NW 19:47:39 45° NNE 19:50:47 42° NE visible
19 Nov 9.9 21:48:14 10° WNW 21:56:41 33° WNW 21:56:41 33° WNW visible
20 Nov 9.8 18:27:16 10° NW 18:45:05 37° NNE 18:55:38 19° ENE visible
20 Nov 9.0 20:45:23 10° NW 21:01:33 67° NNW 21:01:33 67° NNW visible
20 Nov 10.8 23:07:13 10° W 23:07:27 10° W 23:07:27 10° W visible
21 Nov 9.0 19:42:57 10° NW 20:02:38 62° NNE 20:06:36 52° E visible
21 Nov 9.9 22:03:09 10° WNW 22:12:32 34° W 22:12:32 34° W visible
22 Nov 9.6 18:40:59 10° NW 19:00:21 49° NNE 19:11:52 20° E visible
22 Nov 8.9 20:59:44 10° WNW 21:17:49 74° WSW 21:17:49 74° WSW visible
23 Nov 10.0 17:39:28 10° NW 17:57:35 39° NNE 18:13:16 10° E visible
23 Nov 9.0 19:56:57 10° NW 20:17:11 83° NE 20:23:21 46° ESE visible
23 Nov 9.9 22:18:54 10° W 22:29:20 32° WSW 22:29:20 32° WSW visible
24 Nov 9.4 18:54:48 10° NW 19:15:10 66° NE 19:29:07 14° ESE visible
24 Nov 9.2 21:14:42 10° WNW 21:32:43 55° SW 21:35:07 51° S visible
25 Nov 9.7 17:53:13 10° NW 18:12:39 52° NNE 18:29:08 10° ESE visible
25 Nov 9.2 20:11:22 10° WNW 20:31:27 74° SW 20:41:10 26° SE visible
25 Nov 10.0 22:35:44 10° W 22:47:11 25° SW 22:47:11 25° SW visible
